St. Paul Lake Elmo, MN

6:48 AM CST on November 17, 2019 (GMT -0600)
St. Paul Lake Elmo

Weather History for K21D - September, 2019

Change the Weather History Date:

Tuesday, September 3, 2019

  Actual Average (KSTP) Record (KSTP)
Temperature  
Mean Temperature 66 °F -  
Max Temperature 73 °F 77 °F 91 °F (2012)
Min Temperature 60 °F 57 °F 50 °F (1997)
Cooling Degree Days 2    
Growing Degree Days 16 (Base 50)    
Moisture  
Dew Point 58 °F    
Average Humidity 75    
Maximum Humidity 100    
Minimum Humidity 50    
Precipitation  
Precipitation 0.01 in - - ()
Sea Level Pressure  
Sea Level Pressure 29.84 in    
Wind  
Wind Speed 8 mph (WSW)    
Max Wind Speed 23 mph    
Max Gust Speed 31 mph    
Visibility 10 miles    
Events Rain , Thunderstorm    
Averages and records for this station are not official NWS values.
T = Trace of Precipitation, MM = Missing Value Source: NWS Daily Summary

Daily Weather History Graph

Daily Weather History Graph

Search for Another Location

Airport or City:

Astronomy

Sep. 03, 2019 Rise Set
Actual Time 6:35 AM CDT 7:45 PM CDT
Civil Twilight 6:05 AM CDT 8:15 PM CDT
Nautical Twilight 5:29 AM CDT 8:51 PM CDT
Astronomical Twilight 4:50 AM CDT 9:29 PM CDT
Moon 11:41 AM CDT (9/3) 10:28 PM CDT (9/3)
Length of Visible Light 14h 09m
Length of Day
13h 09m
Waxing Crescent, 25% of the Moon is Illuminated
Sep 3
Waxing Crescent
Sep 5
First Quarter
Sep 13
Full
Sep 21
Last Quarter
Sep 28
New

Hourly Weather History & Observations

Time (CDT) Temp. Dew Point Humidity Pressure Visibility Wind Dir Wind Speed Gust Speed Precip Events Conditions
12:15 AM 64.4 °F 62.6 °F 94% 29.85 in 10.0 mi WSW 4.6 mph - N/A Thunderstorm Unknown
12:20 AM 64.4 °F 62.6 °F 94% 29.85 in 10.0 mi Calm Calm - N/A   Unknown
12:37 AM 64.4 °F 62.6 °F 94% 29.84 in 10.0 mi Calm Calm - N/A   Unknown
12:55 AM 62.6 °F 62.6 °F 100% 29.83 in 10.0 mi WSW 4.6 mph - N/A   Unknown
1:15 AM 62.6 °F 62.6 °F 100% 29.82 in 10.0 mi Calm Calm - N/A   Unknown
1:16 AM 62.6 °F 62.6 °F 100% 29.82 in 10.0 mi Calm Calm - N/A   Unknown
1:35 AM 62.6 °F 62.6 °F 100% 29.82 in 10.0 mi WSW 3.5 mph - N/A   Unknown
1:58 AM 62.6 °F 62.6 °F 100% 29.81 in 10.0 mi Calm Calm - N/A   Unknown
2:17 AM 62.6 °F 62.6 °F 100% 29.79 in 10.0 mi WSW 4.6 mph - 0.01 in   Unknown
2:36 AM 62.6 °F 62.6 °F 100% 29.78 in 10.0 mi Calm Calm - 0.01 in   Unknown
2:55 AM 62.6 °F 62.6 °F 100% 29.76 in 10.0 mi Calm Calm - 0.01 in   Unknown
2:56 AM 62.6 °F 62.6 °F 100% 29.75 in 10.0 mi Calm Calm - 0.01 in Rain Light Rain
3:18 AM 64.4 °F 62.6 °F 94% 29.74 in 10.0 mi WSW 3.5 mph - N/A   Unknown
3:37 AM 64.4 °F 64.4 °F 100% 29.73 in 10.0 mi WSW 3.5 mph - N/A   Unknown
3:56 AM 64.4 °F 64.4 °F 100% 29.73 in 10.0 mi Calm Calm - N/A   Unknown
4:15 AM 64.4 °F 64.4 °F 100% 29.73 in 10.0 mi Calm Calm - N/A   Unknown
4:16 AM 64.4 °F 64.4 °F 100% 29.73 in 10.0 mi Calm Calm - N/A   Unknown
4:35 AM 64.4 °F 64.4 °F 100% 29.73 in 10.0 mi Calm Calm - N/A   Unknown
4:57 AM 64.4 °F 64.4 °F 100% 29.73 in 10.0 mi Calm Calm - N/A   Unknown
5:16 AM 66.2 °F 64.4 °F 94% 29.74 in 10.0 mi WSW 4.6 mph - N/A   Unknown
5:35 AM 66.2 °F 64.4 °F 94% 29.73 in 10.0 mi WSW 4.6 mph - N/A   Unknown
5:36 AM 66.2 °F 64.4 °F 94% 29.73 in 10.0 mi WSW 4.6 mph - N/A   Unknown
5:55 AM 66.2 °F 64.4 °F 94% 29.73 in 10.0 mi WSW 3.5 mph - N/A   Unknown
6:19 AM 68.0 °F 68.0 °F 100% 29.73 in 10.0 mi WSW 6.9 mph - N/A   Unknown
6:37 AM 68.0 °F 68.0 °F 100% 29.73 in 10.0 mi WSW 5.8 mph - N/A   Unknown
7:15 AM 68.0 °F 68.0 °F 100% 29.75 in 10.0 mi WSW 8.1 mph - N/A   Unknown
7:16 AM 68.0 °F 68.0 °F 100% 29.75 in 10.0 mi WSW 6.9 mph - N/A   Unknown
7:35 AM 68.0 °F 66.2 °F 94% 29.75 in 10.0 mi WSW 15.0 mph 24.2 mph N/A   Unknown
7:39 AM 68.0 °F 64.4 °F 88% 29.75 in 10.0 mi WSW 16.1 mph 24.2 mph N/A   Unknown
7:58 AM 66.2 °F 64.4 °F 94% 29.76 in 10.0 mi WSW 17.3 mph 24.2 mph N/A   Unknown
8:15 AM 66.2 °F 64.4 °F 94% 29.77 in 10.0 mi WSW 11.5 mph 25.3 mph N/A   Unknown
8:35 AM 66.2 °F 64.4 °F 94% 29.78 in 10.0 mi WSW 16.1 mph 31.1 mph N/A   Unknown
8:36 AM 66.2 °F 64.4 °F 94% 29.78 in 10.0 mi WSW 17.3 mph 24.2 mph N/A   Unknown
8:55 AM 66.2 °F 64.4 °F 94% 29.78 in 10.0 mi WSW 16.1 mph 23.0 mph N/A   Unknown
9:18 AM 66.2 °F 62.6 °F 88% 29.77 in 10.0 mi WSW 8.1 mph 20.7 mph N/A   Unknown
9:37 AM 68.0 °F 62.6 °F 83% 29.76 in 10.0 mi WSW 11.5 mph 17.3 mph N/A   Unknown
9:56 AM 69.8 °F 64.4 °F 83% 29.76 in 10.0 mi WSW 10.4 mph - N/A   Unknown
10:15 AM 69.8 °F 62.6 °F 78% 29.77 in 10.0 mi WSW 11.5 mph 18.4 mph N/A   Unknown
10:35 AM 71.6 °F 60.8 °F 69% 29.77 in 10.0 mi WSW 16.1 mph 23.0 mph N/A   Unknown
10:39 AM 71.6 °F 60.8 °F 69% 29.77 in 10.0 mi WSW 15.0 mph 21.9 mph N/A   Unknown
10:58 AM 71.6 °F 59.0 °F 64% 29.78 in 10.0 mi WSW 18.4 mph 28.8 mph N/A   Unknown
11:15 AM 73.4 °F 57.2 °F 57% 29.79 in 10.0 mi WSW 15.0 mph 24.2 mph N/A   Unknown
11:35 AM 71.6 °F 57.2 °F 60% 29.79 in 10.0 mi WSW 15.0 mph 24.2 mph N/A   Unknown
11:55 AM 71.6 °F 55.4 °F 57% 29.80 in - WSW 20.7 mph - N/A   Unknown
11:56 AM 71.6 °F 55.4 °F 57% 29.79 in - WSW 23.0 mph - N/A   Unknown
12:18 PM 71.6 °F 55.4 °F 57% 29.80 in 10.0 mi WSW 13.8 mph 25.3 mph N/A   Unknown
12:36 PM 73.4 °F 55.4 °F 53% 29.80 in 10.0 mi WSW 19.6 mph 26.5 mph N/A   Unknown
12:56 PM 73.4 °F 57.2 °F 57% 29.81 in 10.0 mi WSW 18.4 mph 23.0 mph N/A   Unknown
1:15 PM 73.4 °F 55.4 °F 53% 29.81 in 10.0 mi WSW 17.3 mph 24.2 mph N/A   Unknown
1:16 PM 73.4 °F 55.4 °F 53% 29.81 in 10.0 mi WSW 15.0 mph 24.2 mph N/A   Unknown
1:35 PM 73.4 °F 55.4 °F 53% 29.82 in 10.0 mi WSW 18.4 mph 25.3 mph N/A   Unknown
1:40 PM 73.4 °F 55.4 °F 53% 29.82 in 10.0 mi WSW 18.4 mph 26.5 mph N/A   Unknown
1:57 PM 73.4 °F 55.4 °F 53% 29.82 in 10.0 mi WSW 16.1 mph 29.9 mph N/A   Unknown
2:15 PM 73.4 °F 53.6 °F 50% 29.83 in 10.0 mi WSW 16.1 mph 25.3 mph N/A   Unknown
2:35 PM 73.4 °F 53.6 °F 50% 29.84 in 10.0 mi WSW 19.6 mph 26.5 mph N/A   Unknown
2:36 PM 73.4 °F 53.6 °F 50% 29.84 in 10.0 mi WSW 19.6 mph 26.5 mph N/A   Unknown
2:55 PM 73.4 °F 53.6 °F 50% 29.84 in 10.0 mi WSW 20.7 mph 26.5 mph N/A   Unknown
2:56 PM 73.4 °F 53.6 °F 50% 29.84 in 10.0 mi WSW 19.6 mph 26.5 mph N/A   Unknown
3:18 PM 73.4 °F 55.4 °F 53% 29.85 in 10.0 mi WSW 16.1 mph 25.3 mph N/A   Unknown
3:36 PM 73.4 °F 55.4 °F 53% 29.86 in 10.0 mi WSW 15.0 mph 23.0 mph N/A   Unknown
3:56 PM 73.4 °F 55.4 °F 53% 29.86 in 10.0 mi WSW 17.3 mph 24.2 mph N/A   Unknown
4:15 PM 71.6 °F 53.6 °F 53% 29.87 in 10.0 mi WSW 13.8 mph 21.9 mph N/A   Unknown
4:16 PM 71.6 °F 53.6 °F 53% 29.87 in 10.0 mi WSW 13.8 mph 21.9 mph N/A   Unknown
4:35 PM 71.6 °F 53.6 °F 53% 29.87 in 10.0 mi WSW 16.1 mph 21.9 mph N/A   Unknown
4:39 PM 71.6 °F 53.6 °F 53% 29.87 in 10.0 mi WSW 15.0 mph 19.6 mph N/A   Unknown
4:57 PM 69.8 °F 53.6 °F 56% 29.89 in 10.0 mi WSW 11.5 mph 24.2 mph N/A   Unknown
5:16 PM 68.0 °F 53.6 °F 60% 29.90 in 10.0 mi WSW 15.0 mph 24.2 mph N/A   Unknown
5:35 PM 68.0 °F 53.6 °F 60% 29.90 in 10.0 mi WSW 12.7 mph 19.6 mph N/A   Unknown
5:36 PM 68.0 °F 53.6 °F 60% 29.90 in 10.0 mi WSW 10.4 mph 19.6 mph N/A   Unknown
5:55 PM 68.0 °F 53.6 °F 60% 29.91 in 10.0 mi WSW 11.5 mph 19.6 mph N/A   Unknown
6:18 PM 68.0 °F 53.6 °F 60% 29.91 in 10.0 mi WSW 13.8 mph 18.4 mph N/A   Unknown
6:37 PM 66.2 °F 53.6 °F 64% 29.92 in 10.0 mi WSW 12.7 mph 24.2 mph N/A   Unknown
6:56 PM 66.2 °F 53.6 °F 64% 29.92 in 10.0 mi WSW 13.8 mph 24.2 mph N/A   Unknown
7:15 PM 64.4 °F 53.6 °F 68% 29.93 in 10.0 mi WSW 13.8 mph 19.6 mph N/A   Unknown
7:16 PM 64.4 °F 53.6 °F 68% 29.93 in 10.0 mi WSW 13.8 mph 19.6 mph N/A   Unknown
7:35 PM 64.4 °F 53.6 °F 68% 29.94 in 10.0 mi WSW 12.7 mph 16.1 mph N/A   Unknown
7:39 PM 64.4 °F 53.6 °F 68% 29.94 in 10.0 mi WSW 10.4 mph 16.1 mph N/A   Unknown
7:58 PM 64.4 °F 53.6 °F 68% 29.95 in 10.0 mi WSW 6.9 mph 17.3 mph N/A   Unknown
8:15 PM 64.4 °F 53.6 °F 68% 29.96 in 10.0 mi WSW 9.2 mph - N/A   Unknown
8:35 PM 62.6 °F 53.6 °F 72% 29.97 in 10.0 mi WSW 8.1 mph - N/A   Unknown
8:56 PM 62.6 °F 53.6 °F 72% 29.98 in 10.0 mi WSW 8.1 mph - N/A   Unknown
9:18 PM 62.6 °F 53.6 °F 72% 29.99 in 10.0 mi WSW 8.1 mph - N/A   Unknown
9:36 PM 62.6 °F 53.6 °F 72% 29.99 in 10.0 mi WSW 8.1 mph - N/A   Unknown
9:55 PM 62.6 °F 53.6 °F 72% 30.00 in 10.0 mi WSW 8.1 mph 19.6 mph N/A   Unknown
10:15 PM 62.6 °F 51.8 °F 68% 30.01 in 10.0 mi WSW 10.4 mph 16.1 mph N/A   Unknown
10:35 PM 62.6 °F 51.8 °F 68% 30.02 in 10.0 mi WSW 8.1 mph 16.1 mph N/A   Unknown
10:39 PM 62.6 °F 51.8 °F 68% 30.02 in 10.0 mi WSW 10.4 mph - N/A   Unknown
10:58 PM 60.8 °F 51.8 °F 72% 30.02 in 10.0 mi WSW 10.4 mph - N/A   Unknown
11:15 PM 60.8 °F 50.0 °F 68% 30.03 in 10.0 mi WSW 11.5 mph - N/A   Unknown
11:35 PM 60.8 °F 50.0 °F 68% 30.04 in 10.0 mi WSW 5.8 mph - N/A   Unknown
11:55 PM 60.8 °F 50.0 °F 68% 30.05 in 10.0 mi WSW 6.9 mph - N/A   Unknown